{"data":{"norad_id":54694,"epoch":"2026-09-21T22:05:59.719776Z","epoch_age_seconds":39442,"freshness":"FRESH","line1":"1 54694U 22167N   26264.92083009  .00008059  00000+0  20843-3 0  9998","line2":"2 54694  97.6877  79.6103 0005987 140.8800 219.2879 15.39365861210367","mean_motion":15.39365861,"eccentricity":0.0005987,"inclination_deg":97.6877,"raan_deg":79.6103,"arg_perigee_deg":140.88,"mean_anomaly_deg":219.2879,"bstar":0.00020843,"rev_number":21036,"period_min":93.54501333845,"perigee_km":443.89654841356,"apogee_km":452.07014491665,"semimajor_km":6826.1203466651,"source":"CELESTRAK","updated_at":"2026-09-22T09:00:25.186911Z"}}